Weather History for Klawock, AK

Change the Weather History Date:

Thursday, November 22, 2012

  Actual Average Record
Temperature  
Mean Temperature 40 °F -  
Max Temperature 44 °F 41 °F 54 °F (2005)
Min Temperature 37 °F 33 °F 19 °F (2010)
Degree Days  
Heating Degree Days 24    
Moisture  
Dew Point 35 °F    
Average Humidity 80    
Maximum Humidity 93    
Minimum Humidity 63    
Precipitation  
Precipitation 0.50 in - - ()
Sea Level Pressure  
Sea Level Pressure 29.42 in    
Wind  
Wind Speed 7 mph (ENE)    
Max Wind Speed 16 mph    
Max Gust Speed 32 mph    
Visibility 8 miles    
Events Rain    
Averages and records for this station are not official NWS values.
T = Trace of Precipitation, MM = Missing Value Source: NWS Daily Summary

Daily Weather History Graph

Daily Weather History Graph

Search for Another Location

Airport:

Trip Planner

Search our weather history database for the weather conditions in past years. The results will help you decide how hot, cold, wet, or windy it might be!

Date:

Astronomy

Nov. 22, 2012 Rise Set
Actual Time 7:41 AM AKST 3:34 PM AKST
Civil Twilight 6:58 AM AKST 4:17 PM AKST
Nautical Twilight 6:12 AM AKST 5:04 PM AKST
Astronomical Twilight 5:28 AM AKST 5:47 PM AKST
Moon 1:11 PM AKST (11/22) 1:16 AM AKST (11/22)
Length of Visible Light 9h 19m
Length of Day
7h 52m
Waxing Gibbous, 72% of the Moon is Illuminated
Nov 22
Waxing Gibbous
Nov 28
Full
Dec 6
Last Quarter
Dec 12
New
Dec 19
First Quarter

Hourly Weather History & Observations

Time (AKST) Temp. Windchill Dew Point Humidity Pressure Visibility Wind Dir Wind Speed Gust Speed Precip Events Conditions
12:53 AM 37.9 °F 33.5 °F 33.1 °F 83% 29.82 in 10.0 mi NE 5.8 mph - N/A   Mostly Cloudy
1:53 AM 41.0 °F 36.4 °F 33.1 °F 73% 29.78 in 10.0 mi Variable 6.9 mph 16.1 mph N/A   Overcast
3:53 AM 42.1 °F 37.1 °F 32.0 °F 67% 29.70 in 10.0 mi ENE 8.1 mph - N/A   Overcast
4:53 AM 42.1 °F 35.7 °F 33.1 °F 70% 29.66 in 10.0 mi NE 11.5 mph 18.4 mph N/A   Overcast
5:53 AM 44.1 °F 41.5 °F 32.0 °F 63% 29.60 in 10.0 mi Variable 4.6 mph 19.6 mph N/A   Overcast
6:53 AM 42.1 °F 36.6 °F 33.1 °F 70% 29.55 in 10.0 mi ENE 9.2 mph 23.0 mph 0.00 in Rain Light Rain
7:53 AM 39.9 °F 33.4 °F 34.0 °F 79% 29.48 in 9.0 mi NNE 10.4 mph 28.8 mph 0.01 in Rain Light Rain
8:53 AM 41.0 °F 34.3 °F 34.0 °F 76% 29.44 in 10.0 mi NE 11.5 mph 31.1 mph 0.00 in Rain Light Rain
9:53 AM 41.0 °F 33.1 °F 34.0 °F 76% 29.41 in 4.0 mi NE 15.0 mph 28.8 mph 0.02 in Rain Light Rain
10:22 AM 41.0 °F 35.2 °F 33.8 °F 76% 29.39 in 5.0 mi NE 9.2 mph 23.0 mph 0.02 in Rain Light Rain
10:46 AM 39.2 °F 32.0 °F 33.8 °F 81% 29.37 in 9.0 mi East 11.5 mph 23.0 mph 0.04 in Rain Light Rain
10:53 AM 41.0 °F 32.8 °F 34.0 °F 76% 29.37 in 10.0 mi East 16.1 mph 32.2 mph 0.04 in Rain Light Rain
11:53 AM 44.1 °F 40.8 °F 33.1 °F 65% 29.36 in 10.0 mi Variable 5.8 mph 23.0 mph 0.01 in Rain Light Rain
12:53 PM 44.1 °F 39.0 °F 35.1 °F 71% 29.38 in 9.0 mi ENE 9.2 mph 18.4 mph 0.00 in Rain Light Rain
1:53 PM 43.0 °F - 36.0 °F 76% 29.37 in 10.0 mi Calm Calm - 0.01 in Rain Light Rain
2:53 PM 42.1 °F - 37.0 °F 82% 29.35 in 10.0 mi Calm Calm - 0.02 in Rain Light Rain
3:53 PM 42.1 °F - 37.0 °F 82% 29.35 in 5.0 mi Calm Calm - 0.04 in Rain Light Rain
4:30 PM 42.8 °F 40.1 °F 37.4 °F 81% 29.31 in 10.0 mi NE 4.6 mph - 0.05 in Rain Light Rain
4:53 PM 39.9 °F - 37.9 °F 93% 29.30 in 8.0 mi Calm Calm - 0.05 in Rain Light Rain
5:18 PM 41.0 °F 38.0 °F 37.4 °F 87% 29.29 in 5.0 mi Variable 4.6 mph - 0.06 in Rain Rain
5:49 PM 41.0 °F 39.0 °F 37.4 °F 87% 29.28 in 9.0 mi South 3.5 mph - 0.12 in Rain Light Rain
5:53 PM 41.0 °F 39.0 °F 37.9 °F 89% 29.28 in 10.0 mi Variable 3.5 mph - 0.12 in Rain Light Rain
6:19 PM 37.4 °F 31.4 °F 35.6 °F 93% 29.33 in 2.5 mi SSW 8.1 mph 27.6 mph 0.06 in Rain Heavy Rain
6:37 PM 39.2 °F 34.2 °F 37.4 °F 93% 29.34 in 4.0 mi SSE 6.9 mph - 0.13 in Rain Rain
6:53 PM 39.0 °F 36.8 °F 37.0 °F 93% 29.34 in 5.0 mi Variable 3.5 mph - 0.18 in Rain Light Rain
7:02 PM 39.2 °F 37.0 °F 37.4 °F 93% 29.34 in 10.0 mi Variable 3.5 mph - 0.00 in Rain Light Rain
7:41 PM 39.2 °F - 37.4 °F 93% 29.36 in 10.0 mi Calm Calm - 0.00 in Rain Light Rain
7:53 PM 39.9 °F 36.7 °F 36.0 °F 86% 29.36 in 9.0 mi Variable 4.6 mph - 0.00 in Rain Light Rain
8:53 PM 41.0 °F 39.0 °F 36.0 °F 82% 29.40 in 10.0 mi SSW 3.5 mph - 0.00 in   Mostly Cloudy
9:53 PM 42.1 °F 40.2 °F 35.1 °F 76% 29.41 in 10.0 mi Variable 3.5 mph - 0.00 in   Mostly Cloudy
10:53 PM 43.0 °F 40.3 °F 34.0 °F 71% 29.42 in 10.0 mi Variable 4.6 mph - N/A   Mostly Cloudy
11:53 PM 43.0 °F 41.3 °F 34.0 °F 71% 29.43 in 10.0 mi Variable 3.5 mph - N/A   Scattered Clouds